Location: *
(43.4667°N, 11.6833°E)
Time: 12:21:34
(UTC+00:00)

SeaSat 1 - Pass Details

Date: 19 July 2019
Orbit: 744 x 748 km, 108.0° (Epoch: 20 August)

Event Time Altitude Azimuth Distance (km) Brightness Sun altitude
Rises 22:47:35 0° 26° (NNE) 3,201 6.6 -25.4°
Reaches altitude 10° 22:49:52 10° 25° (NNE) 2,274 5.7 -25.4°
Maximum altitude 22:54:49 84° 298° (WNW) 758 2.4 -25.5°
Enters shadow 22:55:11 76° 235° (SW) 775 2.3 -25.5°
